(°C)
(°C)
-4°
-3°
-3°
-3°
-2°
-2°
-2°
Ν
Ν
Ν
Ν
Ν
Ν
Ν
(χλμ / ω)
20-35
19-34
18-34
17-32
17-31
17-32
18-32
(χιλιοστά)
0
0
0
0
0
0
0
(%)
46
46
27
19
25
18
17

Ανύψωση ήλιου

/ -53.6°
sun-icon
UV 0
08:25
16:11
Τελευταίο τέταρτο (270°)
23:40
14:08

METAR για 55.6°Β 37.27°Α (UUWW)

Χρόνος Συνθήκες Θερμοκρασία/
Σημείο δρόσου
Άνεμος Ορατότητα Καιρός Νέφη Πίεση Αλλαγή Ανεπεξέργαστο
LIFR 2°C / 2°C 160º 12kt >10km - Overcast 300ft 998 No Significant change. Runway 19: Slush, 26-50% contamination with 2mm, friction coefficient 0.42. UUWW 272000Z 16006MPS 9999 OVC003 02/02 Q0998 R19/650242 NOSIG
LIFR 2°C / 2°C 160º 14kt Gust 23kt >10km - Overcast 300ft 998 No Significant change. Runway 19: Slush, 26-50% contamination with 2mm, friction coefficient 0.42. UUWW 271930Z 16007G12MPS 9999 OVC003 02/02 Q0998 R19/650242 NOSIG
LIFR 2°C / 2°C 160º 12kt >10km - Overcast 300ft 998 No Significant change. Runway 19: Slush, 26-50% contamination with 2mm, friction coefficient 0.42. UUWW 271900Z 16006MPS 9999 OVC003 02/02 Q0998 R19/650242 NOSIG
LIFR 2°C / 1°C 160º 12kt 7000m - Overcast 300ft 998 No Significant change. Runway 19: Slush, 26-50% contamination with 2mm, friction coefficient 0.42. UUWW 271830Z 16006MPS 7000 OVC003 02/01 Q0998 R19/650242 NOSIG
LIFR 2°C / 1°C 150º 14kt. Wind Shear present on Runway 19. 7000m - Overcast 300ft 998 No Significant change. Runway 19: Slush, 26-50% contamination with 2mm, friction coefficient 0.42. UUWW 271800Z 15007MPS 7000 OVC003 02/01 Q0998 WS R19 R19/650242 NOSIG
LIFR 1°C / 1°C 150º 12kt. Wind Shear present on Runway 19. 7000m - Broken Clouds 400ft
Overcast 2000ft
998 No Significant change. Runway 19: Slush, 26-50% contamination with 2mm, friction coefficient 0.42. UUWW 271730Z 15006MPS 7000 BKN004 OVC020 01/01 Q0998 WS R19 R19/650242 NOSIG
LIFR 1°C / 0°C 150º variable 120º to 190º 8kt. Wind Shear present on Runway 06. 5000m Light Rain Light Snow 1.00mm precipitation Vertical Visibility of 0ft. 998 Temporary: Visibility 1500. Showers Rain Snow . Broken Clouds 900ft. Cumulonimbus . Runway 06: Slush, 26-50% contamination with 2mm, friction coefficient 0.42. UUWW 271700Z 15004MPS 120V190 5000 -RASN OVC004 01/00 Q0998 WS R06 R06/650242 TEMPO 1500 SHRASN BKN009CB
LIFR 1°C / 0°C 140º 8kt 5000m Light Rain Light Snow 1.00mm precipitation Vertical Visibility of 0ft. 998 Temporary: Visibility 1500. Showers Rain Snow . Broken Clouds 900ft. Cumulonimbus . Runway 06: Slush, 26-50% contamination with 2mm, friction coefficient 0.42. UUWW 271630Z 14004MPS 5000 -RASN OVC003 01/00 Q0998 R06/650242 TEMPO 1500 SHRASN BKN009CB
LIFR 1°C / 0°C 140º 8kt 4300m Light Snow 1.00mm precipitation Vertical Visibility of 0ft. 999 Temporary: Visibility 1500. Showers Rain Snow . Broken Clouds 900ft. Cumulonimbus . Runway 06: Wet or puddles, 51-100% contamination with <1mm, friction coefficient 0.42. UUWW 271600Z 14004MPS 4300 -SN OVC003 01/M00 Q0999 R06/290042 TEMPO 1500 SHRASN BKN009CB
LIFR 1°C / 0°C 140º 8kt 2600m Light Rain Light Snow 1.00mm precipitation Vertical Visibility of 0ft. 999 Temporary: Visibility 1500. Showers Rain Snow . Broken Clouds 900ft. Cumulonimbus . Runway 06: Wet or puddles, 51-100% contamination with <1mm, friction coefficient 0.42. UUWW 271530Z 14004MPS 2600 -RASN OVC003 01/M00 Q0999 R06/290042 TEMPO 1500 SHRASN BKN009CB
IFR 1°C / 0°C 140º 10kt 3800m Light Snow 1.00mm precipitation Vertical Visibility of 0ft. 999 Temporary: Visibility 1500. Showers Rain Snow . Broken Clouds 900ft. Cumulonimbus . Runway 06: Wet or puddles, 51-100% contamination with <1mm, friction coefficient 0.42. UUWW 271500Z 14005MPS 3800 -SN OVC005 01/M00 Q0999 R06/290042 TEMPO 1500 SHRASN BKN009CB
IFR 1°C / 0°C 140º 10kt Gust 19kt 3600m Light Rain Light Snow 1.00mm precipitation Vertical Visibility of 0ft. 999 Temporary: Visibility 1500. Showers Rain Snow . Broken Clouds 900ft. Cumulonimbus . Runway 06: Wet or puddles, 51-100% contamination with <1mm, friction coefficient 0.42. UUWW 271430Z 14005G10MPS 3600 -RASN OVC005 01/M00 Q0999 R06/290042 TEMPO 1500 SHRASN BKN009CB
IFR 1°C / -1°C 140º 12kt 3400m Light Rain Light Snow 1.00mm precipitation Vertical Visibility of 0ft. 1000 Temporary: Visibility 1500. Showers Rain Snow . Broken Clouds 900ft. Cumulonimbus . Runway 06: Wet or puddles, 51-100% contamination with <1mm, friction coefficient 0.42. UUWW 271400Z 14006MPS 3400 -RASN OVC007 01/M01 Q1000 R06/290042 TEMPO 1500 SHRASN BKN009CB
IFR 1°C / -1°C 140º 12kt 6000m Light Rain Light Snow 1.00mm precipitation Vertical Visibility of 0ft. 1000 Temporary: Visibility 1500. Showers Rain Snow . Broken Clouds 900ft. Cumulonimbus . Runway 06: Wet or puddles, 51-100% contamination with <1mm, friction coefficient 0.42. UUWW 271330Z 14006MPS 6000 -RASN OVC008 01/M01 Q1000 R06/290042 TEMPO 1500 SHRASN BKN009CB
IFR 1°C / -1°C 140º 12kt 5000m Light Showers Rain Light Showers Snow 3.00mm precipitation Vertical Visibility of 0ft.
Broken Clouds 2000ft
1001 Temporary: Visibility 1500. Showers Rain Snow . Broken Clouds 900ft. Cumulonimbus . Runway 06: Wet or puddles, 51-100% contamination with <1mm, friction coefficient 0.42. UUWW 271300Z 14006MPS 5000 -SHRASN BKN009 BKN020CB 01/M01 Q1001 R06/290042 TEMPO 1500 SHRASN BKN009CB
IFR 1°C / -1°C 140º 12kt 7000m Light Rain 1.00mm precipitation Vertical Visibility of 0ft.
Overcast 2000ft
1001 Temporary: Visibility 1500. Showers Rain Snow . Broken Clouds 900ft. Cumulonimbus . Runway 06: Damp, 51-100% contamination with <1mm, friction coefficient 0.60. UUWW 271230Z 14006MPS 7000 -RA BKN009 OVC020 01/M01 Q1001 R06/190060 TEMPO 1500 SHRASN BKN009CB
MVFR 1°C / -1°C 140º 12kt. Wind Shear present on Runway 06. >10km - Overcast 1100ft 1002 Temporary: Visibility 1500. Showers Rain Snow . Broken Clouds 900ft. Cumulonimbus . Runway 06: Damp, 51-100% contamination with <1mm, friction coefficient 0.60. UUWW 271200Z 14006MPS 9999 OVC011 01/M01 Q1002 WS R06 R06/190060 TEMPO 1500 SHRASN BKN009CB
MVFR 1°C / -1°C 140º 14kt. Wind Shear present on Runway 06. >10km - Overcast 1000ft 1002 No Significant change. Runway 06: Damp, 51-100% contamination with <1mm, friction coefficient 0.60. UUWW 271130Z 14007MPS 9999 OVC010 01/M01 Q1002 WS R06 R06/190060 NOSIG
MVFR 1°C / -1°C 140º 14kt >10km - Overcast 1200ft 1002 No Significant change. Runway 06: Damp, 51-100% contamination with <1mm, friction coefficient 0.60. UUWW 271100Z 14007MPS 9999 OVC012 01/M01 Q1002 R06/190060 NOSIG
MVFR 1°C / -1°C 140º 12kt. Wind Shear present on Runway 06. >10km - Broken Clouds 1200ft
Overcast 3000ft
1003 No Significant change. Runway 06: Damp, 51-100% contamination with <1mm, friction coefficient 0.60. UUWW 271030Z 14006MPS 9999 BKN012 OVC030 01/M01 Q1003 WS R06 R06/190060 NOSIG
MVFR 1°C / -1°C 140º 14kt. Wind Shear present on Runway 06. >10km - Broken Clouds 1300ft
Overcast 2600ft
1003 No Significant change. Runway 06: Damp, 51-100% contamination with <1mm, friction coefficient 0.60. UUWW 271000Z 14007MPS 9999 BKN013 OVC026 01/M01 Q1003 WS R06 R06/190060 NOSIG
VFR 1°C / -2°C 140º 14kt >10km - Few Clouds 1300ft
Overcast 3300ft
1004 No Significant change. Runway 06: Damp, 51-100% contamination with <1mm, friction coefficient 0.60. UUWW 270930Z 14007MPS 9999 FEW013 OVC033 01/M02 Q1004 R06/190060 NOSIG
VFR 1°C / -2°C 130º 14kt Gust 23kt >10km - Overcast 3300ft 1004 No Significant change. Runway 19: Wet or puddles, 51-100% contamination with <1mm, friction coefficient 0.45. UUWW 270900Z 13007G12MPS 9999 OVC033 01/M02 Q1004 R19/290045 NOSIG
VFR 1°C / -2°C 130º 10kt 9000m Light Showers Snow 3.00mm precipitation Vertical Visibility of 0ft. 1005 No Significant change. Runway 19: Wet or puddles, 51-100% contamination with <1mm, friction coefficient 0.45. UUWW 270830Z 13005MPS 9000 -SHSN BKN031CB 01/M02 Q1005 R19/290045 NOSIG

LIFR

2°C / 2°C

[Περισσότερο]
Άνεμος 160º 12kt
Ορατότητα >10km
Καιρός -
Νέφη Overcast 300ft
Πίεση 998
Αλλαγή No Significant change. Runway 19: Slush, 26-50% contamination with 2mm, friction coefficient 0.42.
Ανεπεξέργαστο UUWW 272000Z 16006MPS 9999 OVC003 02/02 Q0998 R19/650242 NOSIG

LIFR

2°C / 2°C

[Περισσότερο]
Άνεμος 160º 14kt Gust 23kt
Ορατότητα >10km
Καιρός -
Νέφη Overcast 300ft
Πίεση 998
Αλλαγή No Significant change. Runway 19: Slush, 26-50% contamination with 2mm, friction coefficient 0.42.
Ανεπεξέργαστο UUWW 271930Z 16007G12MPS 9999 OVC003 02/02 Q0998 R19/650242 NOSIG

LIFR

2°C / 2°C

[Περισσότερο]
Άνεμος 160º 12kt
Ορατότητα >10km
Καιρός -
Νέφη Overcast 300ft
Πίεση 998
Αλλαγή No Significant change. Runway 19: Slush, 26-50% contamination with 2mm, friction coefficient 0.42.
Ανεπεξέργαστο UUWW 271900Z 16006MPS 9999 OVC003 02/02 Q0998 R19/650242 NOSIG

LIFR

2°C / 1°C

[Περισσότερο]
Άνεμος 160º 12kt
Ορατότητα 7000m
Καιρός -
Νέφη Overcast 300ft
Πίεση 998
Αλλαγή No Significant change. Runway 19: Slush, 26-50% contamination with 2mm, friction coefficient 0.42.
Ανεπεξέργαστο UUWW 271830Z 16006MPS 7000 OVC003 02/01 Q0998 R19/650242 NOSIG

LIFR

2°C / 1°C

[Περισσότερο]
Άνεμος 150º 14kt. Wind Shear present on Runway 19.
Ορατότητα 7000m
Καιρός -
Νέφη Overcast 300ft
Πίεση 998
Αλλαγή No Significant change. Runway 19: Slush, 26-50% contamination with 2mm, friction coefficient 0.42.
Ανεπεξέργαστο UUWW 271800Z 15007MPS 7000 OVC003 02/01 Q0998 WS R19 R19/650242 NOSIG

LIFR

1°C / 1°C

[Περισσότερο]
Άνεμος 150º 12kt. Wind Shear present on Runway 19.
Ορατότητα 7000m
Καιρός -
Νέφη Broken Clouds 400ft
Overcast 2000ft
Πίεση 998
Αλλαγή No Significant change. Runway 19: Slush, 26-50% contamination with 2mm, friction coefficient 0.42.
Ανεπεξέργαστο UUWW 271730Z 15006MPS 7000 BKN004 OVC020 01/01 Q0998 WS R19 R19/650242 NOSIG

LIFR

1°C / 0°C

[Περισσότερο]
Άνεμος 150º variable 120º to 190º 8kt. Wind Shear present on Runway 06.
Ορατότητα 5000m
Καιρός Light Rain Light Snow 1.00mm precipitation
Νέφη Vertical Visibility of 0ft.
Πίεση 998
Αλλαγή Temporary: Visibility 1500. Showers Rain Snow . Broken Clouds 900ft. Cumulonimbus . Runway 06: Slush, 26-50% contamination with 2mm, friction coefficient 0.42.
Ανεπεξέργαστο UUWW 271700Z 15004MPS 120V190 5000 -RASN OVC004 01/00 Q0998 WS R06 R06/650242 TEMPO 1500 SHRASN BKN009CB

LIFR

1°C / 0°C

[Περισσότερο]
Άνεμος 140º 8kt
Ορατότητα 5000m
Καιρός Light Rain Light Snow 1.00mm precipitation
Νέφη Vertical Visibility of 0ft.
Πίεση 998
Αλλαγή Temporary: Visibility 1500. Showers Rain Snow . Broken Clouds 900ft. Cumulonimbus . Runway 06: Slush, 26-50% contamination with 2mm, friction coefficient 0.42.
Ανεπεξέργαστο UUWW 271630Z 14004MPS 5000 -RASN OVC003 01/00 Q0998 R06/650242 TEMPO 1500 SHRASN BKN009CB

LIFR

1°C / 0°C

[Περισσότερο]
Άνεμος 140º 8kt
Ορατότητα 4300m
Καιρός Light Snow 1.00mm precipitation
Νέφη Vertical Visibility of 0ft.
Πίεση 999
Αλλαγή Temporary: Visibility 1500. Showers Rain Snow . Broken Clouds 900ft. Cumulonimbus . Runway 06: Wet or puddles, 51-100% contamination with <1mm, friction coefficient 0.42.
Ανεπεξέργαστο UUWW 271600Z 14004MPS 4300 -SN OVC003 01/M00 Q0999 R06/290042 TEMPO 1500 SHRASN BKN009CB

LIFR

1°C / 0°C

[Περισσότερο]
Άνεμος 140º 8kt
Ορατότητα 2600m
Καιρός Light Rain Light Snow 1.00mm precipitation
Νέφη Vertical Visibility of 0ft.
Πίεση 999
Αλλαγή Temporary: Visibility 1500. Showers Rain Snow . Broken Clouds 900ft. Cumulonimbus . Runway 06: Wet or puddles, 51-100% contamination with <1mm, friction coefficient 0.42.
Ανεπεξέργαστο UUWW 271530Z 14004MPS 2600 -RASN OVC003 01/M00 Q0999 R06/290042 TEMPO 1500 SHRASN BKN009CB

IFR

1°C / 0°C

[Περισσότερο]
Άνεμος 140º 10kt
Ορατότητα 3800m
Καιρός Light Snow 1.00mm precipitation
Νέφη Vertical Visibility of 0ft.
Πίεση 999
Αλλαγή Temporary: Visibility 1500. Showers Rain Snow . Broken Clouds 900ft. Cumulonimbus . Runway 06: Wet or puddles, 51-100% contamination with <1mm, friction coefficient 0.42.
Ανεπεξέργαστο UUWW 271500Z 14005MPS 3800 -SN OVC005 01/M00 Q0999 R06/290042 TEMPO 1500 SHRASN BKN009CB

IFR

1°C / 0°C

[Περισσότερο]
Άνεμος 140º 10kt Gust 19kt
Ορατότητα 3600m
Καιρός Light Rain Light Snow 1.00mm precipitation
Νέφη Vertical Visibility of 0ft.
Πίεση 999
Αλλαγή Temporary: Visibility 1500. Showers Rain Snow . Broken Clouds 900ft. Cumulonimbus . Runway 06: Wet or puddles, 51-100% contamination with <1mm, friction coefficient 0.42.
Ανεπεξέργαστο UUWW 271430Z 14005G10MPS 3600 -RASN OVC005 01/M00 Q0999 R06/290042 TEMPO 1500 SHRASN BKN009CB

IFR

1°C / -1°C

[Περισσότερο]
Άνεμος 140º 12kt
Ορατότητα 3400m
Καιρός Light Rain Light Snow 1.00mm precipitation
Νέφη Vertical Visibility of 0ft.
Πίεση 1000
Αλλαγή Temporary: Visibility 1500. Showers Rain Snow . Broken Clouds 900ft. Cumulonimbus . Runway 06: Wet or puddles, 51-100% contamination with <1mm, friction coefficient 0.42.
Ανεπεξέργαστο UUWW 271400Z 14006MPS 3400 -RASN OVC007 01/M01 Q1000 R06/290042 TEMPO 1500 SHRASN BKN009CB

IFR

1°C / -1°C

[Περισσότερο]
Άνεμος 140º 12kt
Ορατότητα 6000m
Καιρός Light Rain Light Snow 1.00mm precipitation
Νέφη Vertical Visibility of 0ft.
Πίεση 1000
Αλλαγή Temporary: Visibility 1500. Showers Rain Snow . Broken Clouds 900ft. Cumulonimbus . Runway 06: Wet or puddles, 51-100% contamination with <1mm, friction coefficient 0.42.
Ανεπεξέργαστο UUWW 271330Z 14006MPS 6000 -RASN OVC008 01/M01 Q1000 R06/290042 TEMPO 1500 SHRASN BKN009CB

IFR

1°C / -1°C

[Περισσότερο]
Άνεμος 140º 12kt
Ορατότητα 5000m
Καιρός Light Showers Rain Light Showers Snow 3.00mm precipitation
Νέφη Vertical Visibility of 0ft.
Broken Clouds 2000ft
Πίεση 1001
Αλλαγή Temporary: Visibility 1500. Showers Rain Snow . Broken Clouds 900ft. Cumulonimbus . Runway 06: Wet or puddles, 51-100% contamination with <1mm, friction coefficient 0.42.
Ανεπεξέργαστο UUWW 271300Z 14006MPS 5000 -SHRASN BKN009 BKN020CB 01/M01 Q1001 R06/290042 TEMPO 1500 SHRASN BKN009CB

IFR

1°C / -1°C

[Περισσότερο]
Άνεμος 140º 12kt
Ορατότητα 7000m
Καιρός Light Rain 1.00mm precipitation
Νέφη Vertical Visibility of 0ft.
Overcast 2000ft
Πίεση 1001
Αλλαγή Temporary: Visibility 1500. Showers Rain Snow . Broken Clouds 900ft. Cumulonimbus . Runway 06: Damp, 51-100% contamination with <1mm, friction coefficient 0.60.
Ανεπεξέργαστο UUWW 271230Z 14006MPS 7000 -RA BKN009 OVC020 01/M01 Q1001 R06/190060 TEMPO 1500 SHRASN BKN009CB

MVFR

1°C / -1°C

[Περισσότερο]
Άνεμος 140º 12kt. Wind Shear present on Runway 06.
Ορατότητα >10km
Καιρός -
Νέφη Overcast 1100ft
Πίεση 1002
Αλλαγή Temporary: Visibility 1500. Showers Rain Snow . Broken Clouds 900ft. Cumulonimbus . Runway 06: Damp, 51-100% contamination with <1mm, friction coefficient 0.60.
Ανεπεξέργαστο UUWW 271200Z 14006MPS 9999 OVC011 01/M01 Q1002 WS R06 R06/190060 TEMPO 1500 SHRASN BKN009CB

MVFR

1°C / -1°C

[Περισσότερο]
Άνεμος 140º 14kt. Wind Shear present on Runway 06.
Ορατότητα >10km
Καιρός -
Νέφη Overcast 1000ft
Πίεση 1002
Αλλαγή No Significant change. Runway 06: Damp, 51-100% contamination with <1mm, friction coefficient 0.60.
Ανεπεξέργαστο UUWW 271130Z 14007MPS 9999 OVC010 01/M01 Q1002 WS R06 R06/190060 NOSIG

MVFR

1°C / -1°C

[Περισσότερο]
Άνεμος 140º 14kt
Ορατότητα >10km
Καιρός -
Νέφη Overcast 1200ft
Πίεση 1002
Αλλαγή No Significant change. Runway 06: Damp, 51-100% contamination with <1mm, friction coefficient 0.60.
Ανεπεξέργαστο UUWW 271100Z 14007MPS 9999 OVC012 01/M01 Q1002 R06/190060 NOSIG

MVFR

1°C / -1°C

[Περισσότερο]
Άνεμος 140º 12kt. Wind Shear present on Runway 06.
Ορατότητα >10km
Καιρός -
Νέφη Broken Clouds 1200ft
Overcast 3000ft
Πίεση 1003
Αλλαγή No Significant change. Runway 06: Damp, 51-100% contamination with <1mm, friction coefficient 0.60.
Ανεπεξέργαστο UUWW 271030Z 14006MPS 9999 BKN012 OVC030 01/M01 Q1003 WS R06 R06/190060 NOSIG

MVFR

1°C / -1°C

[Περισσότερο]
Άνεμος 140º 14kt. Wind Shear present on Runway 06.
Ορατότητα >10km
Καιρός -
Νέφη Broken Clouds 1300ft
Overcast 2600ft
Πίεση 1003
Αλλαγή No Significant change. Runway 06: Damp, 51-100% contamination with <1mm, friction coefficient 0.60.
Ανεπεξέργαστο UUWW 271000Z 14007MPS 9999 BKN013 OVC026 01/M01 Q1003 WS R06 R06/190060 NOSIG

VFR

1°C / -2°C

[Περισσότερο]
Άνεμος 140º 14kt
Ορατότητα >10km
Καιρός -
Νέφη Few Clouds 1300ft
Overcast 3300ft
Πίεση 1004
Αλλαγή No Significant change. Runway 06: Damp, 51-100% contamination with <1mm, friction coefficient 0.60.
Ανεπεξέργαστο UUWW 270930Z 14007MPS 9999 FEW013 OVC033 01/M02 Q1004 R06/190060 NOSIG

VFR

1°C / -2°C

[Περισσότερο]
Άνεμος 130º 14kt Gust 23kt
Ορατότητα >10km
Καιρός -
Νέφη Overcast 3300ft
Πίεση 1004
Αλλαγή No Significant change. Runway 19: Wet or puddles, 51-100% contamination with <1mm, friction coefficient 0.45.
Ανεπεξέργαστο UUWW 270900Z 13007G12MPS 9999 OVC033 01/M02 Q1004 R19/290045 NOSIG

VFR

1°C / -2°C

[Περισσότερο]
Άνεμος 130º 10kt
Ορατότητα 9000m
Καιρός Light Showers Snow 3.00mm precipitation
Νέφη Vertical Visibility of 0ft.
Πίεση 1005
Αλλαγή No Significant change. Runway 19: Wet or puddles, 51-100% contamination with <1mm, friction coefficient 0.45.
Ανεπεξέργαστο UUWW 270830Z 13005MPS 9000 -SHSN BKN031CB 01/M02 Q1005 R19/290045 NOSIG

TAF για 55.6°Β 37.27°Α (UUWW)

From till


Maximum Temperature 4ºC on . Minimum Temperature 1ºC on .
From till Wind 140º 12kt. Visibility 5000m. Light Rain . Overcast 500ft.
Temporarly from till Wind 150º 16kt. Gust 25kt. Visibility 1500m. Showers Rain Showers Snow . Broken Clouds 300ft. Broken Clouds 1600ft.
Temporarly from till Visibility 997.791m. Light Rain Mist . Broken Clouds 200ft.
Becoming from till Wind 220º 10kt. Visibility 5000m. Light Rain . Overcast 500ft.
Becoming from till Wind 220º 10kt. Visibility 5000m. Light Rain . Broken Clouds 1600ft.

Ανεπεξέργαστο: TAF UUWW 271659Z 2718/2818 14006MPS 5000 -RA OVC005 TX04/2804Z TN01/2718Z TEMPO 2718/2720 15008G13MPS 1500 SHRASN BKN003 BKN016CB TEMPO 2720/2806 1000 -RA BR BKN002 BECMG 2803/2806 22005MPS BECMG 2807/2809 BKN016

Τρέχουσες εικόνες δορυφόρου και βροχής για 55.6°Β 37.27°Α

Η ένδειξη τοποθεσίας τοποθετείται στο 55.6°Β 37.27°Α. [Περισσότερο]

Οι δορυφορικές εικόνες σε πραγματικό χρόνο συνδυάζουν ορατό φως κατά τη διάρκεια της ημέρας με υπέρυθρη ακτινοβολία κατά τη διάρκεια της νύχτας. Κατά τη διάρκεια της νύχτας, η εικόνα δεν είναι σκοτεινή μιας και η υπέρυθρη ακτινοβολία μπορεί να εντοπίσει τις διαφορές στη θερμοκρασία. Δυστυχώς, είναι δύσκολο να ξεχωρίσουν οι χαμηλές νεφώσεις και η ομίχλη από τις θερμοκρασίες εδάφους και έτσι μπορεί να είναι σχετικά αόρατα κατά τη διάρκεια της νύχτας. Οι εικόνες από τον δορυφόρο Meteosat για την Ευρώπη ενημερώνονται σε πραγματικό χρόνο κάθε 5 λεπτά. Οι εικόνες από τους δορυφόρους GOES-16/GOES-17 (Βόρεια & Λατινική Αμερική) και Himawari (Ασία) ενημερώνονται κάθε 10 λεπτά.

Πνευματική ιδιοκτησία 2021 EUMETSAT / meteoblue. / Πνευματική ιδιοκτησία 2021 meteoblue

Ραντάρ και πρόγνωση υετού μικρής δειάρκειας για 55.6°Β 37.27°Α

Ψιλοβρέχει
Φως
Μέτρια
Βαριά
Πολύ βαρύ
Χαλάζι

Ο δείκτης θέσης τοποθετείται στο 55.6°Β 37.27°Α. Αυτή η κινούμενη εικόνα δείχνει την ραντάρ βροχόπτωσης για την τελευταία ώρα, καθώς και 1πρόγνωση h. Το ψιλόβροχο ή το ελαφρύ χιόνι μπορεί να είναι αόρατο για το ραντάρ. Η ένταση της βροχόπτωσης είναι χρωματικά κωδικοποιημένη και κυμαίνεται από γαλάζιο έως πορτοκαλί.